User: anonymous   Login
Location: Unspecified
(0.0000°N, 0.0000°E)
Time: 16:38:16
(UTC+00:00)
Language:

VELOX 1 - Orbit

View from above orbital plane
View from above orbital plane
View from above satellite
View from above satellite

Ground track
Ground track

The orbit data is extracted from the following two-line orbital elements,

1 40057U 14034E   21337.21029882  .00000796  00000-0  11704-3 0  9994
2 40057  98.3455 137.2858 0009917 233.9800 126.0498 14.78393590400471
Epoch (UTC): 03 December 2021 05:02:49
Eccentricity: 0.0009917
inclination: 98.3455°
perigee height: 627 km
apogee height: 641 km
right ascension of ascending node: 137.2858°
argument of perigee: 233.9800°
revolutions per day: 14.78393590
mean anomaly at epoch: 126.0498°
orbit number at epoch: 40047

The dashed part of the orbit path shows where the satellite is in the earth's shadow,  

DLR